Погода Кемь-Порт

Погода Кемь-Порт : погода сейчас, прогноз погоды и архив. Всё, что Вы хотите узнать о погоде Кемь-Порт!

Поиск расширенной информации на нашем сайте:

Другие новости

Новости СМИ2

Главная страница сайта

Новости сайта

03.07.2017

Напоминаем, что на нашем специализированном сайте Метеоцентр.Азия вы можете получить высокодетализированные автоматические прогнозы погоды по пунктам России, СНГ и мира в авиационном формате (включающие направление и скорость ветра, видимость, явления погоды, количество и форму облачности, нижнюю и верхнюю границу облачности).


Погода Кемь-Порт - сегодня

Время (UTC), дата Ветер
(°,м/с) 
Видим.   Явления Облачность Т
(°С)
Тd
(°С)
f(%) Тe
(°С)
Pmin
(гПа)
dP
(гПа)
Po
(мм)
O2
(г/м3)
Тmin Tmax R s Состояние
почвы
06 16.08.17 210 (ЮЗ) 20000 м    10/0 средняя 
[Ac As]
+13.2 +9.7 79 +14  1023.5  767  293          влажная 
09 16.08.17 140 (ЮВ) 20000 м    4/0 средняя, верхняя 
[Ac trans|Ci fib]
+18.5 +11.7 65 +22  1022.9  -0.5  767  287           
12 16.08.17 210 (ЮЗ) 20000 м    6/3 1000 м верхняя 
[Sc diur, vesp|Ci fib]
+21.3 +6.6 38 +21  1021.9  -1.1  766  285           
15 16.08.17 230 (ЮЗ) 3{10}  20000 м    3/1 1000 м верхняя 
[Sc diur, vesp|Ci fib]
+20.7 +7 41 +21  1021.4  -0.5  765  286           
18 16.08.17 140 (ЮВ) 20000 м    8/6 1000 м верхняя 
[Cu Sc|Ci fib]
+16.5 +11.1 70 +19  1021.4  765  289    +21.6       
21 16.08.17 190 (Ю) 20000 м    8/8 300 м 
[Sc]
+15.4 +10.3 72 +17  1021  -0.3  765  290           
00 17.08.17 200 (Ю) 20000 м    9/9 300 м 
[Sc]
+14.7 +9.8 72 +16  1020.6  -0.4  765  291           
03 17.08.17 190 (Ю) 20000 м    8/8 300 м 
[Sc]
+14.7 +10 73 +16  1019.6  -1  764  290  +14.3         
06 17.08.17 200 (Ю) 20000 м    3/0 средняя 
[Ac trans]
+17.7 +11.3 66 +21  1018.7  -0.8  763  287  +14.3        сухая 
09 17.08.17 210 (ЮЗ) 5-10{11}  20000 м    3/3 600 м верхняя 
[Cu hum|Ci fib]
+21.8 +10.8 50 +24  1018.1  -0.7  763  283           
12 17.08.17 240 (ЮЗ) 6-11{13}  20000 м    4/4 600 м 
[Cu hum]
+22.1 +11.6 51 +25  1017.9  -0.2  763  282           
15 17.08.17 240 (ЮЗ) 4{11}  20000 м    3/3 600 м 
[Cu med, cong]
+22.7 +8.6 40 +23  1017.8  763  282           
18 17.08.17 250 (З) 20000 м    1/1 600 м 
[Cu hum]
+16.5 +11 70 +19  1018.5  0.7  763  288    +22.9       
21 17.08.17 230 (ЮЗ) 20000 м    ясно 
+11.4 +9.9 90 +13  1019.1  0.6  764  294           
00 18.08.17 260 (З) 20000 м    3/0 средняя 
[Ac trans]
+10.2 +8.4 89 +10  1019.5  0.3  764  295           
03 18.08.17 300 (СЗ) 20000 м    6/0 верхняя 
[Cs]
+10.5 +8.5 87 +11  1019.3  -0.2  764  295  +10         
06 18.08.17 350 (С) 20000 м    6/0 верхняя 
[Cs]
+13.8 +9.7 76 +14  1019.1  -0.1  764  291  +10        сухая 
09 18.08.17 060 (СВ) 20000 м    3/0 средняя 
[Ac trans]
+16.7 +11 69 +20  1019  0.1  764  288           
12 18.08.17 070 (В) 20000 м    9/9 300 м 
[Cu Sc]
+16 +10.3 69 +18  1017.7  -1.2  763  288           
15 18.08.17 060 (СВ) 20000 м    9/9 600 м 
[Sc]
+15.1 +13.2 88 +21  1016.5  -1.3  762  288           
18 18.08.17 040 (СВ) 20000 м    8/0 средняя, верхняя 
[Ac und|Ci fib]
+13.8 +10.5 80 +16  1015.6  -0.8  761  290    +17.5       
21 18.08.17 тихо ()   20000 м    3/0 верхняя 
[Ci fib]
+13.7 +12.4 92 +18  1014.2  -1.5  760  289           
00 19.08.17 тихо ()   0500 м  туман  ?/?  
+13.7 +13.2 97 +19  1013  -1.3  759  289           
03 19.08.17 120 (ЮВ) 0050 м  туман  ?/?  
+14.1 +13.6 97 +21  1012  -0.9  758  288  +13.1         
06 19.08.17 110 (В) 0050 м  туман  ?/?  
+14.7 +14.3 97 +22  1011.4  -0.7  758  287  +13.1        влажная 
Время (UTC), дата Ветер
(°,м/с) 
Видим.   Явления Облачность Т
(°С)
Тd
(°С)
f(%) Тe
(°С)
Pmin
(гПа)
dP
(гПа)
Po
(мм)
O2
(г/м3)
Тmin Tmax R s Состояние
почвы

Для получения пояснительной информации подведите курсор к названию столбца.

ПОГОДА Кемь-Порт - архив

Всё, что Вы хотите узнать о погоде Кемь-Порт - удобно и подробно!

Выберите нужную дату (начиная с 1 января 2015* года) и нажмите кнопку "Найти".
Будут отображены архивные сводки погоды по пункту Кемь-Порт, начиная с указанной даты.


Отображать данные в формате CSV (для использования в таблицах Excel)


Внимание! Наш архив погоды предназначен исключительно для личного некоммерческого использования в познавательных целях. Если Вам необходимы официальные справки о состоянии погоды (для производственных, юридических, коммерческих и т.п. целей), обращайтесь в органы Росгидромета.

*Примечание: данная дата относится к архиву по метеостанциям СССР (Россия, СНГ, Балтия).
Архив по метеостанциям Зарубежной Европы и Азии (кроме Китая) хранится 10 дней, по другим регионам земного шара (Китай, Африка, Америка, Австралия, Океания) - 1 день.

Кемь-Порт - район местоположения метеостанции


Название, широта, долгота, высота метеостанции:
Кемь-Порт 64.98°ш. 34.80°д. 8 м над ур. моря [Российская Федерация]

Дополнительная информация

В oтличие oт бoльшинства пoгoдных сайтoв мы публикуем пoдрoбную метеoинфoрмацию в детальнoм прoфессиoнальнoм фoрмате.

Характеристики температуры и влажнoсти вoздуха измеряются на высoте 2 м в тени вдали oт зданий и деревьев.
Скoрoсть ветра измеряется на высoте 10 м (на урoвне рoста челoвека скoрoсть ветра ниже в 1.5-2 раза). Если метеoстанция нахoдится в гoрoде или в лесу, тo скoрoсть ветра занижена на 2-4 м/с пo сравнению с oткрытым местoм. Скoрoсть ветра над акватoриями крупных рек и oзёр, а также на вершинах хoлмoв на 2-5 м/с выше, чем в oбычных услoвиях.
Атмoсфернoе давление в разных тoчках местнoсти мoжет значительнo oтличаться oт давления на метеoстанции, в зависимoсти oт услoвий рельефа (при пoдъёме на 10 м давление пoнижается примернo на 1 мм рт.ст.).